CPV1026 SBVT-SBSV

Flight info

Callsign CPV1026
Flight time 1h 12m
Altitude 35000
Route GIDOD DCT XUXUG
Aircraft B738/M-SDE3/L

Departure

Time 2026-04-25 12:37
Airport Eurico de Aguiar Salles International Airport (SBVT)

Arrival

Time 2026-04-25 13:50
Airport Deputado Luiz Eduardo Magalhães International Airport (SBSV)
Time Latitude Longitude Altitude Speed Heading
2026-04-25 12:21 -20.26499 -40.28170 36 ft 0 kts 261°
2026-04-25 12:31 -20.26497 -40.28158 37 ft 4 kts 262°
2026-04-25 12:31 -20.26494 -40.28129 35 ft 4 kts 262°
2026-04-25 12:31 -20.26490 -40.28100 37 ft 4 kts 262°
2026-04-25 12:31 -20.26486 -40.28072 39 ft 4 kts 260°
2026-04-25 12:32 -20.26482 -40.28053 40 ft 2 kts 238°
2026-04-25 12:32 -20.26474 -40.28045 37 ft 2 kts 179°
2026-04-25 12:32 -20.26464 -40.28046 38 ft 0 kts 169°
2026-04-25 12:33 -20.26465 -40.28046 39 ft 2 kts 169°
2026-04-25 12:33 -20.26509 -40.28038 39 ft 7 kts 172°
2026-04-25 12:34 -20.26559 -40.28031 41 ft 7 kts 174°
2026-04-25 12:34 -20.26607 -40.28026 41 ft 7 kts 174°
2026-04-25 12:34 -20.26655 -40.28021 38 ft 7 kts 172°
2026-04-25 12:34 -20.26685 -40.28015 41 ft 7 kts 167°
2026-04-25 12:35 -20.26710 -40.27963 42 ft 7 kts 71°
2026-04-25 12:35 -20.26672 -40.27935 42 ft 7 kts 25°
2026-04-25 12:35 -20.26630 -40.27913 41 ft 7 kts 29°
2026-04-25 12:35 -20.26594 -40.27874 39 ft 6 kts 68°
2026-04-25 12:36 -20.26571 -40.27858 39 ft 4 kts
2026-04-25 12:36 -20.26560 -40.27859 39 ft 0 kts 353°
2026-04-25 12:36 -20.26550 -40.27860 39 ft 14 kts 354°
2026-04-25 12:37 -20.26160 -40.27914 38 ft 98 kts 352°
2026-04-25 12:37 -20.25234 -40.28056 46 ft 167 kts 351°
2026-04-25 12:37 -20.23990 -40.28191 706 ft 184 kts 356°
2026-04-25 12:37 -20.22807 -40.27929 2032 ft 168 kts 36°
2026-04-25 12:38 -20.21927 -40.27040 2901 ft 187 kts 39°
2026-04-25 12:38 -20.20788 -40.26154 3331 ft 215 kts 35°
2026-04-25 12:38 -20.19582 -40.25144 3940 ft 225 kts 38°
2026-04-25 12:38 -20.18353 -40.24081 4786 ft 229 kts 38°
2026-04-25 12:39 -20.17105 -40.23006 5634 ft 233 kts 38°
2026-04-25 12:39 -20.15669 -40.22107 6131 ft 253 kts 13°
2026-04-25 12:39 -20.13839 -40.22029 6532 ft 274 kts 358°
2026-04-25 12:39 -20.11947 -40.21615 7291 ft 283 kts 22°
2026-04-25 12:40 -20.10146 -40.20764 8181 ft 285 kts 21°
2026-04-25 12:40 -20.08295 -40.19970 9055 ft 288 kts 18°
2026-04-25 12:40 -20.06435 -40.19222 9929 ft 291 kts 17°
2026-04-25 12:40 -20.04506 -40.18474 10574 ft 303 kts 17°
2026-04-25 12:41 -20.02429 -40.17689 10781 ft 330 kts 17°
2026-04-25 12:41 -20.00208 -40.16871 11247 ft 343 kts 17°
2026-04-25 12:41 -19.97935 -40.16040 11951 ft 347 kts 17°
2026-04-25 12:41 -19.95637 -40.15206 12714 ft 351 kts 18°
2026-04-25 12:42 -19.93317 -40.14362 13459 ft 354 kts 18°
2026-04-25 12:42 -19.91738 -40.13790 13957 ft 355 kts 18°
2026-04-25 12:42 -19.88599 -40.12657 14663 ft 364 kts 18°
2026-04-25 12:42 -19.86179 -40.11787 15174 ft 370 kts 18°
2026-04-25 12:43 -19.83725 -40.10908 15730 ft 375 kts 18°
2026-04-25 12:43 -19.81235 -40.10015 16269 ft 380 kts 18°
2026-04-25 12:43 -19.76165 -40.08200 17373 ft 388 kts 18°
2026-04-25 12:44 -19.73596 -40.07277 17909 ft 392 kts 18°
2026-04-25 12:44 -19.70994 -40.06343 18405 ft 397 kts 18°
2026-04-25 12:44 -19.65710 -40.04449 19298 ft 404 kts 18°
2026-04-25 12:45 -19.63069 -40.03504 19757 ft 407 kts 18°
2026-04-25 12:45 -19.60341 -40.02671 20211 ft 409 kts 12°
2026-04-25 12:45 -19.54688 -40.01570 21105 ft 416 kts
2026-04-25 12:46 -19.51812 -40.01090 21542 ft 419 kts
2026-04-25 12:46 -19.48916 -40.00600 21973 ft 423 kts
2026-04-25 12:46 -19.46005 -40.00091 22388 ft 426 kts
2026-04-25 12:46 -19.43066 -39.99560 22811 ft 429 kts
2026-04-25 12:47 -19.40112 -39.99014 23217 ft 433 kts
2026-04-25 12:47 -19.37138 -39.98456 23611 ft 436 kts
2026-04-25 12:47 -19.34139 -39.97889 23958 ft 439 kts
2026-04-25 12:47 -19.31130 -39.97317 24327 ft 440 kts
2026-04-25 12:48 -19.28098 -39.96740 24687 ft 442 kts
2026-04-25 12:48 -19.25092 -39.96169 25020 ft 444 kts
2026-04-25 12:48 -19.22034 -39.95588 25365 ft 447 kts
2026-04-25 12:48 -19.18959 -39.95005 25704 ft 449 kts
2026-04-25 12:49 -19.15877 -39.94421 26031 ft 451 kts
2026-04-25 12:49 -19.12784 -39.93835 26364 ft 453 kts
2026-04-25 12:49 -19.09668 -39.93245 26679 ft 455 kts
2026-04-25 12:49 -19.06544 -39.92653 26995 ft 457 kts
2026-04-25 12:50 -19.03403 -39.92059 27316 ft 459 kts
2026-04-25 12:50 -19.00250 -39.91463 27635 ft 461 kts
2026-04-25 12:50 -18.97083 -39.90864 27948 ft 463 kts
2026-04-25 12:50 -18.93945 -39.90271 28245 ft 465 kts
2026-04-25 12:51 -18.90750 -39.89668 28531 ft 467 kts
2026-04-25 12:51 -18.87548 -39.89063 28817 ft 469 kts
2026-04-25 12:51 -18.84330 -39.88456 29100 ft 471 kts
2026-04-25 12:51 -18.81096 -39.87845 29373 ft 473 kts
2026-04-25 12:52 -18.77851 -39.87233 29687 ft 473 kts
2026-04-25 12:52 -18.74614 -39.86623 30109 ft 472 kts
2026-04-25 12:52 -18.71387 -39.86015 30504 ft 469 kts
2026-04-25 12:52 -18.68179 -39.85410 30887 ft 467 kts
2026-04-25 12:53 -18.64978 -39.84807 31253 ft 466 kts 10°
2026-04-25 12:53 -18.61791 -39.84201 31606 ft 465 kts 10°
2026-04-25 12:53 -18.58604 -39.83596 31980 ft 463 kts 10°
2026-04-25 12:53 -18.55434 -39.82997 32358 ft 462 kts 10°
2026-04-25 12:54 -18.52271 -39.82401 32732 ft 461 kts 10°
2026-04-25 12:54 -18.49120 -39.81809 33115 ft 459 kts 10°
2026-04-25 12:54 -18.45980 -39.81220 33482 ft 458 kts 10°
2026-04-25 12:54 -18.42850 -39.80636 33841 ft 457 kts
2026-04-25 12:55 -18.39761 -39.80062 34178 ft 456 kts
2026-04-25 12:55 -18.37654 -39.79669 34394 ft 455 kts 10°
2026-04-25 12:55 -18.33529 -39.78890 34802 ft 453 kts 10°
2026-04-25 12:55 -18.30424 -39.78309 35069 ft 453 kts
2026-04-25 12:56 -18.24150 -39.77140 35094 ft 463 kts
2026-04-25 12:56 -18.17761 -39.75945 35093 ft 467 kts
2026-04-25 12:57 -18.11358 -39.74746 35090 ft 468 kts
2026-04-25 12:57 -18.04950 -39.73546 35087 ft 468 kts
2026-04-25 12:58 -17.98542 -39.72349 35085 ft 467 kts
2026-04-25 12:58 -17.92186 -39.71162 35086 ft 466 kts
2026-04-25 12:59 -17.85808 -39.69971 35084 ft 465 kts
2026-04-25 12:59 -17.79421 -39.68780 35085 ft 465 kts
2026-04-25 13:00 -17.75168 -39.67988 35084 ft 464 kts
2026-04-25 13:00 -17.66713 -39.66413 35089 ft 463 kts
2026-04-25 13:01 -17.60371 -39.65233 35093 ft 463 kts
2026-04-25 13:01 -17.54071 -39.64062 35080 ft 462 kts
2026-04-25 13:02 -17.47733 -39.62884 35088 ft 462 kts
2026-04-25 13:02 -17.41390 -39.61707 35085 ft 462 kts
2026-04-25 13:03 -17.35049 -39.60530 35085 ft 462 kts 10°
2026-04-25 13:03 -17.28739 -39.59360 35081 ft 463 kts 10°
2026-04-25 13:04 -17.22400 -39.58186 35088 ft 463 kts 10°
2026-04-25 13:04 -17.16043 -39.57009 35088 ft 463 kts 10°
2026-04-25 13:05 -17.09688 -39.55833 35084 ft 464 kts 10°
2026-04-25 13:05 -17.03331 -39.54657 35086 ft 464 kts 10°
2026-04-25 13:06 -16.96985 -39.53485 35082 ft 464 kts 10°
2026-04-25 13:06 -16.90662 -39.52317 35086 ft 464 kts 10°
2026-04-25 13:07 -16.84305 -39.51144 35079 ft 464 kts 10°
2026-04-25 13:07 -16.77952 -39.49973 35087 ft 464 kts 10°
2026-04-25 13:08 -16.71596 -39.48802 35082 ft 463 kts 10°
2026-04-25 13:08 -16.65250 -39.47633 35082 ft 463 kts 10°
2026-04-25 13:09 -16.58900 -39.46465 35081 ft 463 kts 10°
2026-04-25 13:09 -16.52554 -39.45298 35080 ft 462 kts 10°
2026-04-25 13:10 -16.46214 -39.44132 35074 ft 462 kts 10°
2026-04-25 13:10 -16.39913 -39.42975 35078 ft 462 kts 10°
2026-04-25 13:11 -16.33575 -39.41812 35079 ft 462 kts 10°
2026-04-25 13:11 -16.27235 -39.40649 35078 ft 462 kts 10°
2026-04-25 13:12 -16.20897 -39.39487 35079 ft 462 kts 10°
2026-04-25 13:12 -16.16700 -39.38718 35081 ft 462 kts 10°
2026-04-25 13:13 -16.08222 -39.37166 35078 ft 462 kts 10°
2026-04-25 13:13 -16.01923 -39.36013 35080 ft 462 kts 10°
2026-04-25 13:14 -15.95585 -39.34854 35071 ft 462 kts 10°
2026-04-25 13:14 -15.89216 -39.33910 35075 ft 462 kts
2026-04-25 13:15 -15.83894 -39.33264 35072 ft 463 kts
2026-04-25 13:15 -15.77488 -39.32480 35072 ft 462 kts
2026-04-25 13:16 -15.71104 -39.31665 35072 ft 462 kts
2026-04-25 13:16 -15.64715 -39.30833 35073 ft 462 kts
2026-04-25 13:17 -15.58337 -39.29998 35071 ft 462 kts
2026-04-25 13:17 -15.51954 -39.29164 35082 ft 462 kts
2026-04-25 13:18 -15.45615 -39.28337 35072 ft 462 kts
2026-04-25 13:18 -15.39234 -39.27506 35068 ft 462 kts
2026-04-25 13:19 -15.32847 -39.26675 35069 ft 462 kts
2026-04-25 13:19 -15.27551 -39.25986 35071 ft 461 kts
2026-04-25 13:20 -15.20092 -39.25015 35069 ft 461 kts
2026-04-25 13:20 -15.13836 -39.24198 35051 ft 446 kts
2026-04-25 13:21 -15.07730 -39.23402 35062 ft 439 kts
2026-04-25 13:21 -15.01676 -39.22620 34640 ft 437 kts
2026-04-25 13:22 -14.98673 -39.22233 34282 ft 432 kts
2026-04-25 13:22 -14.95691 -39.21848 33890 ft 429 kts
2026-04-25 13:22 -14.92734 -39.21465 33461 ft 427 kts
2026-04-25 13:23 -14.86907 -39.20710 32665 ft 422 kts
2026-04-25 13:23 -14.84004 -39.20333 32270 ft 419 kts
2026-04-25 13:23 -14.81118 -39.19959 31885 ft 417 kts
2026-04-25 13:23 -14.78248 -39.19587 31501 ft 414 kts
2026-04-25 13:24 -14.75392 -39.19217 31120 ft 413 kts
2026-04-25 13:24 -14.72545 -39.18849 30728 ft 411 kts
2026-04-25 13:24 -14.69710 -39.18482 30338 ft 410 kts
2026-04-25 13:24 -14.66875 -39.18115 29920 ft 409 kts
2026-04-25 13:25 -14.64056 -39.17750 29495 ft 407 kts
2026-04-25 13:25 -14.61257 -39.17389 29078 ft 404 kts
2026-04-25 13:25 -14.58473 -39.17029 28676 ft 401 kts
2026-04-25 13:25 -14.55743 -39.16676 28279 ft 399 kts
2026-04-25 13:26 -14.52994 -39.16321 27893 ft 396 kts
2026-04-25 13:26 -14.50263 -39.15968 27503 ft 394 kts
2026-04-25 13:26 -14.47550 -39.15618 27116 ft 392 kts
2026-04-25 13:26 -14.44839 -39.15268 26728 ft 390 kts
2026-04-25 13:27 -14.42148 -39.14921 26344 ft 388 kts
2026-04-25 13:27 -14.39466 -39.14575 25954 ft 387 kts
2026-04-25 13:27 -14.36792 -39.14230 25568 ft 386 kts
2026-04-25 13:27 -14.34128 -39.13886 25173 ft 385 kts
2026-04-25 13:28 -14.31477 -39.13544 24793 ft 384 kts
2026-04-25 13:28 -14.29723 -39.13318 24529 ft 383 kts
2026-04-25 13:28 -14.26220 -39.12866 24024 ft 382 kts
2026-04-25 13:28 -14.23579 -39.12526 23644 ft 381 kts
2026-04-25 13:29 -14.20951 -39.12187 23199 ft 380 kts
2026-04-25 13:29 -14.18332 -39.11850 22807 ft 377 kts
2026-04-25 13:29 -14.15734 -39.11516 22419 ft 375 kts
2026-04-25 13:30 -14.10595 -39.10854 21676 ft 369 kts
2026-04-25 13:30 -14.08051 -39.10527 21302 ft 367 kts
2026-04-25 13:30 -14.05528 -39.10202 20942 ft 365 kts
2026-04-25 13:31 -14.00515 -39.09557 20214 ft 361 kts
2026-04-25 13:31 -13.98030 -39.09238 19856 ft 359 kts
2026-04-25 13:31 -13.95592 -39.08924 19502 ft 357 kts
2026-04-25 13:31 -13.93134 -39.08609 19135 ft 355 kts
2026-04-25 13:32 -13.90693 -39.08295 18775 ft 353 kts
2026-04-25 13:32 -13.88265 -39.07983 18419 ft 351 kts
2026-04-25 13:32 -13.85850 -39.07672 18004 ft 349 kts
2026-04-25 13:32 -13.83442 -39.07363 17626 ft 346 kts
2026-04-25 13:33 -13.81062 -39.07057 17259 ft 343 kts
2026-04-25 13:33 -13.78700 -39.06754 16894 ft 341 kts
2026-04-25 13:33 -13.76355 -39.06453 16544 ft 338 kts
2026-04-25 13:33 -13.74811 -39.06255 16311 ft 337 kts
2026-04-25 13:34 -13.71714 -39.05855 15852 ft 334 kts
2026-04-25 13:34 -13.69520 -39.05148 15478 ft 330 kts 32°
2026-04-25 13:34 -13.67694 -39.03762 15194 ft 325 kts 40°
2026-04-25 13:34 -13.65939 -39.02298 14844 ft 325 kts 40°
2026-04-25 13:35 -13.64188 -39.00837 14499 ft 324 kts 40°
2026-04-25 13:35 -13.62453 -38.99396 14155 ft 323 kts 40°
2026-04-25 13:35 -13.60690 -38.97936 13768 ft 327 kts 40°
2026-04-25 13:35 -13.58912 -38.96469 13414 ft 327 kts 40°
2026-04-25 13:36 -13.57133 -38.95004 13034 ft 327 kts 40°
2026-04-25 13:36 -13.55364 -38.93551 12694 ft 324 kts 40°
2026-04-25 13:36 -13.53609 -38.92110 12358 ft 321 kts 40°
2026-04-25 13:36 -13.51882 -38.90693 12009 ft 313 kts 40°
2026-04-25 13:37 -13.50202 -38.89315 11699 ft 307 kts 40°
2026-04-25 13:37 -13.48541 -38.87952 11389 ft 305 kts 41°
2026-04-25 13:37 -13.46884 -38.86591 11075 ft 303 kts 41°
2026-04-25 13:37 -13.45244 -38.85245 10761 ft 302 kts 41°
2026-04-25 13:38 -13.43615 -38.83909 10434 ft 297 kts 41°
2026-04-25 13:38 -13.42007 -38.82591 10217 ft 292 kts 41°
2026-04-25 13:38 -13.40435 -38.81304 10037 ft 286 kts 41°
2026-04-25 13:38 -13.38880 -38.80030 9735 ft 285 kts 41°
2026-04-25 13:39 -13.37337 -38.78763 9435 ft 283 kts 41°
2026-04-25 13:39 -13.35806 -38.77507 9140 ft 281 kts 41°
2026-04-25 13:39 -13.34285 -38.76259 8839 ft 279 kts 41°
2026-04-25 13:39 -13.32795 -38.75036 8554 ft 277 kts 41°
2026-04-25 13:40 -13.31274 -38.73788 8266 ft 275 kts 41°
2026-04-25 13:40 -13.29803 -38.72581 7986 ft 274 kts 41°
2026-04-25 13:40 -13.28299 -38.71347 7699 ft 272 kts 41°
2026-04-25 13:40 -13.26840 -38.70150 7419 ft 271 kts 41°
2026-04-25 13:41 -13.25369 -38.68943 7135 ft 270 kts 41°
2026-04-25 13:41 -13.23899 -38.67738 6838 ft 270 kts 41°
2026-04-25 13:41 -13.22434 -38.66536 6542 ft 269 kts 41°
2026-04-25 13:41 -13.20968 -38.65334 6256 ft 269 kts 41°
2026-04-25 13:42 -13.19504 -38.64133 5933 ft 269 kts 41°
2026-04-25 13:42 -13.18044 -38.62937 5641 ft 268 kts 41°
2026-04-25 13:42 -13.16589 -38.61746 5354 ft 267 kts 41°
2026-04-25 13:42 -13.15143 -38.60562 5076 ft 265 kts 41°
2026-04-25 13:43 -13.13714 -38.59397 4923 ft 259 kts 41°
2026-04-25 13:43 -13.12322 -38.58266 4771 ft 258 kts 40°
2026-04-25 13:43 -13.10900 -38.57110 4639 ft 259 kts 41°
2026-04-25 13:43 -13.09503 -38.55974 4496 ft 260 kts 41°
2026-04-25 13:44 -13.08076 -38.54814 4365 ft 262 kts 41°
2026-04-25 13:44 -13.06646 -38.53652 4218 ft 262 kts 41°
2026-04-25 13:44 -13.05217 -38.52493 4082 ft 262 kts 40°
2026-04-25 13:44 -13.03591 -38.51650 3845 ft 269 kts 13°
2026-04-25 13:45 -13.01738 -38.51428 3666 ft 267 kts
2026-04-25 13:45 -12.99907 -38.51169 3429 ft 264 kts 10°
2026-04-25 13:45 -12.98089 -38.50889 3182 ft 263 kts 10°
2026-04-25 13:45 -12.96304 -38.50614 2933 ft 255 kts 11°
2026-04-25 13:46 -12.94701 -38.49997 2676 ft 248 kts 42°
2026-04-25 13:46 -12.93848 -38.48562 2545 ft 229 kts 83°
2026-04-25 13:46 -12.93696 -38.47003 2486 ft 213 kts 85°
2026-04-25 13:46 -12.93472 -38.45546 2368 ft 202 kts 84°
2026-04-25 13:47 -12.93236 -38.44145 2139 ft 195 kts 82°
2026-04-25 13:47 -12.92975 -38.42808 1877 ft 188 kts 82°
2026-04-25 13:47 -12.92721 -38.41524 1634 ft 178 kts 81°
2026-04-25 13:47 -12.92474 -38.40328 1401 ft 163 kts 82°
2026-04-25 13:48 -12.92283 -38.39248 1199 ft 146 kts 83°
2026-04-25 13:48 -12.92065 -38.38311 1008 ft 131 kts 80°
2026-04-25 13:48 -12.91877 -38.37352 858 ft 140 kts 86°
2026-04-25 13:48 -12.91718 -38.36318 710 ft 145 kts 84°
2026-04-25 13:49 -12.91484 -38.35361 509 ft 138 kts 78°
2026-04-25 13:49 -12.91254 -38.34414 352 ft 141 kts 82°
2026-04-25 13:49 -12.91070 -38.33422 89 ft 141 kts 82°
2026-04-25 13:49 -12.90898 -38.32457 53 ft 139 kts 76°
2026-04-25 13:50 -12.90758 -38.31757 58 ft 28 kts 77°
2026-04-25 13:50 -12.90763 -38.31707 55 ft 1 kts 141°
2026-04-25 13:50 -12.90769 -38.31708 56 ft 1 kts 175°
2026-04-25 13:50 -12.90801 -38.31708 58 ft 12 kts 181°
2026-04-25 13:51 -12.90894 -38.31734 59 ft 15 kts 225°
2026-04-25 13:51 -12.90930 -38.31827 55 ft 14 kts 260°
2026-04-25 13:51 -12.90943 -38.31923 52 ft 13 kts 262°
2026-04-25 13:51 -12.90956 -38.32015 58 ft 13 kts 261°
2026-04-25 13:52 -12.90973 -38.32103 52 ft 13 kts 258°
2026-04-25 13:52 -12.90993 -38.32199 56 ft 19 kts 259°
2026-04-25 13:52 -12.91031 -38.32388 49 ft 32 kts 258°
2026-04-25 13:52 -12.91073 -38.32600 48 ft 26 kts 258°
2026-04-25 13:53 -12.91108 -38.32771 49 ft 23 kts 259°
2026-04-25 13:53 -12.91139 -38.32931 46 ft 22 kts 259°
2026-04-25 13:53 -12.91169 -38.33075 44 ft 20 kts 258°
2026-04-25 13:53 -12.91221 -38.33162 43 ft 14 kts 209°
2026-04-25 13:54 -12.91300 -38.33190 43 ft 10 kts 205°
2026-04-25 13:54 -12.91346 -38.33225 42 ft 0 kts 218°